Orbital Elements at Epoch 2459200.5 (2020-Dec-17.0) TDB
Reference: JPL 15 (heliocentric ecliptic J2000)
Element | Value | Uncertainty (1-sigma) | Units |
e | .2340126893465053 | 3.5481e-08 | |
a | 2.222392341924381 | 6.9348e-09 | au |
q | 1.702324333207578 | 7.7449e-08 | au |
i | 5.676283049070336 | 5.7512e-06 | deg |
node | 38.27278707931839 | 3.3855e-05 | deg |
peri | 306.4999701950533 | 3.6599e-05 | deg |
M | 165.7387493368398 | 1.4942e-05 | deg |
tp | 2458643.377008703720 (2019-Jun-08.87700870) | 4.9066e-05 | TDB |
period | 1210.123025962041 3.31 | 5.6641e-06 1.551e-08 | d yr |
n | .2974904140129075 | 1.3924e-09 | deg/d |
Q | 2.742460350641183 | 8.5576e-09 | au |
|
| | Orbit Determination Parameters
Additional Information
|